Varna, Bulgaria

10:03 PM EEST on October 17, 2018 (GMT +0300)
Varna

Weather History for LBWN - October, 2018

Change the Weather History Date:

Friday, October 12, 2018

  Actual Average Record
Temperature  
Mean Temperature 62 °F -  
Max Temperature 70 °F 61 °F 71 °F (1998)
Min Temperature 55 °F 46 °F 41 °F (1999)
Degree Days  
Heating Degree Days 2    
Growing Degree Days 12 (Base 50)    
Moisture  
Dew Point 52 °F    
Average Humidity 70    
Maximum Humidity 88    
Minimum Humidity 52    
Precipitation  
Precipitation 0.00 in 0.05 in - ()
Sea Level Pressure  
Sea Level Pressure 30.26 in    
Wind  
Wind Speed 8 mph ()    
Max Wind Speed 17 mph    
Max Gust Speed 18 mph    
Visibility 7.1 miles    
Events Rain    
Averages and records for this station are not official NWS values.
T = Trace of Precipitation, MM = Missing Value Source: Averaged Metar Reports

Daily Weather History Graph

Daily Weather History Graph

Search for Another Location

Airport or City:

Astronomy

Oct. 12, 2018 Rise Set
Actual Time 7:18 AM EEST 6:30 PM EEST
Civil Twilight 6:49 AM EEST 6:59 PM EEST
Nautical Twilight 6:16 AM EEST 7:32 PM EEST
Astronomical Twilight 5:43 AM EEST 8:05 PM EEST
Moon 10:36 AM EEST (10/12) 8:49 PM EEST (10/12)
Length of Visible Light 12h 09m
Length of Day
11h 12m
Waxing Crescent, 12% of the Moon is Illuminated
Oct 12
Waxing Crescent
Oct 16
First Quarter
Oct 24
Full
Oct 31
Last Quarter
Nov 7
New

Hourly Weather History & Observations

Time (EEST) Temp. Dew Point Humidity Pressure Visibility Wind Dir Wind Speed Gust Speed Precip Events Conditions
12:00 AM 62 °F 54 °F 68% 30.24 in 12 mi NNE 4.5 mph - -   Mostly Cloudy
12:00 AM 60.8 °F 53.6 °F 77% 30.24 in - North 11.5 mph - N/A   Clear
12:30 AM 59.0 °F 53.6 °F 82% 30.24 in - North 10.4 mph - N/A   Clear
1:00 AM 59.0 °F 51.8 °F 77% 30.24 in - North 10.4 mph - N/A   Clear
1:30 AM 59.0 °F 51.8 °F 77% 30.24 in - NNE 10.4 mph - N/A   Clear
2:00 AM 59.0 °F 51.8 °F 77% 30.24 in - North 10.4 mph - N/A   Clear
2:30 AM 59.0 °F 50.0 °F 72% 30.24 in - North 11.5 mph - N/A   Clear
3:00 AM 62 °F 51 °F 58% 30.24 in 12 mi NNE 6.7 mph - -   Mostly Cloudy
3:00 AM 59.0 °F 50.0 °F 72% 30.21 in - North 8.1 mph - N/A   Clear
3:30 AM 59.0 °F 48.2 °F 67% 30.21 in - North 6.9 mph - N/A   Clear
4:00 AM 57.2 °F 46.4 °F 67% 30.21 in - North 6.9 mph - N/A   Clear
4:30 AM 57.2 °F 46.4 °F 67% 30.21 in - North 8.1 mph - N/A   Clear
5:00 AM 59.0 °F 44.6 °F 59% 30.21 in - North 8.1 mph - N/A   Clear
5:30 AM 57.2 °F 46.4 °F 67% 30.24 in - North 8.1 mph - N/A   Clear
6:00 AM 61 °F 49 °F 56% 30.24 in 12 mi NNW 6.7 mph - -   Partly Cloudy
6:00 AM 57.2 °F 44.6 °F 63% 30.24 in - North 6.9 mph - N/A   Clear
6:30 AM 57.2 °F 46.4 °F 67% 30.24 in - North 9.2 mph - N/A   Clear
7:00 AM 55.4 °F 46.4 °F 72% 30.24 in - North 12.7 mph - N/A   Clear
7:30 AM 55.4 °F 48.2 °F 77% 30.24 in - North 12.7 mph - N/A   Clear
8:00 AM 55.4 °F 48.2 °F 77% 30.24 in - North 12.7 mph - N/A   Clear
8:30 AM 57.2 °F 48.2 °F 72% 30.24 in - North 9.2 mph - N/A   Clear
9:00 AM 59 °F 52 °F 71% 30.26 in 9 mi NNE 8.9 mph - -   Partly Cloudy
9:00 AM 59.0 °F 50.0 °F 72% 30.27 in - North 8.1 mph - N/A   Clear
10:00 AM 62.6 °F 53.6 °F 72% 30.27 in - North 6.9 mph - N/A   Clear
10:30 AM 66.2 °F 55.4 °F 68% 30.27 in 6.2 mi NE 6.9 mph 18.4 mph N/A   Partly Cloudy
11:00 AM 66.2 °F 53.6 °F 64% 30.27 in 6.2 mi NNE 11.5 mph - N/A   Scattered Clouds
11:30 AM 66.2 °F 55.4 °F 68% 30.27 in 6.2 mi NNE 15.0 mph - N/A   Scattered Clouds
12:00 PM 69 °F 56 °F 55% 30.28 in 9 mi ENE 6.7 mph - -   Partly Cloudy
12:00 PM 68.0 °F 55.4 °F 64% 30.27 in 6.2 mi NNE 17.3 mph - N/A   Scattered Clouds
12:30 PM 68.0 °F 55.4 °F 64% 30.30 in 6.2 mi NNE 16.1 mph - N/A   Scattered Clouds
1:00 PM 69.8 °F 55.4 °F 60% 30.30 in 6.2 mi ENE 13.8 mph - N/A   Scattered Clouds
1:30 PM 69.8 °F 55.4 °F 60% 30.30 in 6.2 mi NE 15.0 mph - N/A   Scattered Clouds
2:00 PM 68.0 °F 55.4 °F 64% 30.27 in 6.2 mi NE 12.7 mph - N/A   Scattered Clouds
2:30 PM 68.0 °F 55.4 °F 64% 30.27 in 6.2 mi NE 12.7 mph - N/A   Scattered Clouds
3:00 PM 68 °F 56 °F 57% 30.30 in 6 mi ENE 6.7 mph - - Rain Light Rain Showers
3:30 PM 64.4 °F 57.2 °F 77% 30.30 in 5.0 mi NE 4.6 mph - N/A Rain Rain Showers
4:00 PM 64.4 °F 57.2 °F 77% 30.27 in 6.2 mi NW 5.8 mph - N/A   Scattered Clouds
4:30 PM 64.4 °F 59.0 °F 83% 30.27 in 6.2 mi West 3.5 mph - N/A   Partly Cloudy
5:00 PM 66.2 °F 55.4 °F 68% 30.27 in 6.2 mi NE 4.6 mph - N/A   Partly Cloudy
5:30 PM 68.0 °F 50.0 °F 52% 30.27 in 6.2 mi ENE 5.8 mph - N/A   Partly Cloudy
6:00 PM 65 °F 54 °F 59% 30.28 in 6 mi ENE 6.7 mph - -   Partly Cloudy
6:00 PM 66.2 °F 50.0 °F 56% 30.27 in 6.2 mi ENE 9.2 mph - N/A   Partly Cloudy
6:30 PM 64.4 °F 51.8 °F 64% 30.27 in 6.2 mi NE 8.1 mph - N/A   Partly Cloudy
7:00 PM 62.6 °F 51.8 °F 68% 30.27 in - ENE 4.6 mph - N/A   Clear
7:30 PM 62.6 °F 53.6 °F 72% 30.30 in - NE 8.1 mph - N/A   Clear
8:00 PM 62.6 °F 53.6 °F 72% 30.30 in - NNE 13.8 mph - N/A   Clear
8:30 PM 60.8 °F 55.4 °F 82% 30.30 in - NNE 12.7 mph - N/A   Clear
9:00 PM 61 °F 56 °F 80% 30.30 in 6 mi NE 4.5 mph - -   Partly Cloudy
9:00 PM 60.8 °F 53.6 °F 77% 30.30 in - NNE 12.7 mph - N/A   Clear
9:30 PM 60.8 °F 55.4 °F 82% 30.30 in - North 8.1 mph - N/A   Clear
10:00 PM 60.8 °F 55.4 °F 82% 30.30 in - NNE 9.2 mph - N/A   Clear
10:30 PM 60.8 °F 55.4 °F 82% 30.30 in - NNE 10.4 mph - N/A   Clear
11:00 PM 60.8 °F 55.4 °F 82% 30.30 in - NNE 12.7 mph - N/A   Clear
11:30 PM 59.0 °F 55.4 °F 88% 30.30 in - NNE 12.7 mph - N/A   Clear